Location: Newark
(12.4436°N, 0.6167°W)
Time: 06:29:19
(UTC+00:00)

Transit 2A - Pass Details

Date: 13 December 2019
Orbit: 601 x 958 km, 66.7° (Epoch: 27 January)

Event Time Altitude Azimuth Distance (km) Brightness Sun altitude
Rises 15:39:57 0° 355° (N) 2,973 8.8 24.8°
Reaches altitude 10° 15:42:23 10° 6° (N) 2,108 8.0 24.3°
Maximum altitude 15:46:38 31° 69° (ENE) 1,235 6.8 23.4°
Drops below altitude 10° 15:51:16 10° 131° (SE) 2,308 8.4 22.5°
Sets 15:54:01 0° 141° (SE) 3,302 9.2 21.9°
